[[{"header":{"parameterUnit":"m.s-1","parameterCategory":2,"la1":30.2992,"la2":30.254,"lo1":-89.0895,"lo2":-89.0443,"dy":0.0025,"dx":0.0025,"nx":19,"ny":19,"refTime":"2026-03-21T21:00:00:Z","depth":"0","parameterNumber":2,"parameterNumberName":"U-component_of_CURRENTS"},"data":[0,0,0,-0.3741,-0.3743,-0.3794,-0.3794,-0.3682,-0.3681,0,0,0,0,0,0,0,0,0,0,0,-0.3704,-0.3705,-0.3741,-0.3743,-0.3794,-0.3794,-0.3683,-0.3681,0,0,0,0,0,0,0,0,0,0,0,-0.3704,-0.3705,-0.3705,-0.3744,-0.3794,-0.3794,-0.3683,-0.3683,0,0,0,0,0,0,0,0,0,0,-0.3653,-0.364,-0.3705,-0.3705,-0.3744,-0.3794,-0.3794,-0.3685,-0.3683,-0.3616,0,-0.3631,0,-0.3667,-0.3672,-0.3671,0,0,0,-0.3721,-0.3642,-0.3675,-0.3705,-0.3745,-0.3794,-0.3765,-0.3685,-0.3683,-0.3612,-0.363,-0.3627,-0.3665,-0.3671,-0.367,-0.359,-0.3591,0,0,-0.3718,-0.3688,-0.3678,-0.3674,-0.3763,-0.3764,-0.3767,-0.3685,-0.3668,-0.3629,-0.3626,-0.3663,-0.367,-0.3669,-0.359,-0.359,0,0,0,-0.3725,-0.3686,-0.3724,-0.3677,-0.3709,-0.3766,-0.3769,-0.3672,-0.3691,-0.3625,-0.3662,-0.3669,-0.3667,-0.359,-0.359,-0.3618,0,0,0,-0.3722,-0.3693,-0.3723,-0.3702,-0.3712,-0.3713,-0.3757,-0.3696,-0.3689,-0.3663,-0.3669,-0.3666,-0.359,-0.359,-0.3616,-0.3533,0,0,0,-0.3701,-0.369,-0.3703,-0.3701,-0.3738,-0.3717,-0.373,-0.3696,-0.3711,-0.3671,-0.3666,-0.359,-0.359,-0.3615,-0.3534,-0.3243,0,0,0,-0.3659,-0.3687,-0.3701,-0.374,-0.3738,-0.3774,-0.3732,-0.3738,-0.3711,-0.3668,-0.359,-0.359,-0.3615,-0.3535,-0.3248,-0.2925,-0.2873,0,0,-0.3679,-0.3688,-0.3716,-0.3733,-0.3781,-0.3765,-0.377,-0.3721,-0.3689,-0.3599,-0.3599,-0.3617,-0.3534,-0.3244,-0.2952,-0.2898,0,0,0,-0.3714,-0.3712,-0.3737,-0.3762,-0.38,-0.3769,-0.3752,-0.3728,-0.3678,-0.3682,-0.3618,-0.3563,-0.3378,-0.3198,-0.3156,-0.3062,-0.3592,-0.3592,-0.3592,-0.3631,-0.3687,-0.3702,-0.3745,-0.3764,-0.3764,-0.3711,-0.3659,-0.3683,-0.3673,-0.3592,-0.3391,-0.3213,-0.3174,-0.3089,-0.3648,-0.3648,-0.3648,-0.3648,-0.3581,-0.3549,-0.3631,-0.3661,-0.3674,-0.3663,-0.3634,-0.3635,-0.3459,-0.3598,-0.3417,-0.3247,-0.3128,-0.3054,-0.365,-0.365,-0.3649,-0.3649,-0.3649,-0.3435,-0.3423,-0.3479,-0.3509,-0.352,-0.3571,-0.3434,-0.3457,-0.3386,-0.3279,-0.2903,-0.2899,-0.2802,-0.3158,-0.3156,-0.3154,-0.3153,-0.3152,-0.3151,-0.3221,-0.3286,-0.3264,-0.3336,-0.334,-0.3342,-0.3276,-0.3111,-0.2848,-0.2797,-0.2793,-0.2704,-0.3235,-0.3218,-0.3127,-0.3131,-0.3134,-0.3136,-0.3138,-0.2947,-0.3025,-0.2977,-0.2984,-0.3014,-0.2836,-0.287,-0.2425,-0.2227,-0.1987,-0.2051,-0.2465,-0.2347,-0.238,-0.2339,-0.2023,-0.2023,-0.2023,-0.2023,-0.2733,-0.2782,-0.2682,-0.2653,-0.2612,-0.2584,-0.2008,-0.1656,-0.1429,-0.1325,-0.1551,-0.1692,-0.1741,-0.1601,-0.1652,-0.1603,-0.1107,-0.1106,-0.1105,-0.2511,-0.2538,-0.2375,-0.2435,-0.2409,-0.2204,-0.1549,-0.0884,-0.0742,-0.1077,-0.148,-0.1519,-0.1761,-0.1845,-0.167,-0.1748,-0.1685,0,0]},{"header":{"parameterUnit":"m.s-1","parameterCategory":2,"la1":30.2992,"la2":30.254,"lo1":-89.0895,"lo2":-89.0443,"dy":0.0025,"dx":0.0025,"nx":19,"ny":19,"refTime":"2026-03-21T21:00:00:Z","depth":"0","parameterNumber":3,"parameterNumberName":"V-component_of_CURRENTS"},"data":[0,0,0,-0.1128,-0.1126,-0.0958,-0.0957,-0.0735,-0.0734,0,0,0,0,0,0,0,0,0,0,0,-0.1185,-0.1184,-0.1129,-0.1126,-0.0958,-0.0957,-0.0735,-0.0734,0,0,0,0,0,0,0,0,0,0,0,-0.1185,-0.1184,-0.1184,-0.1125,-0.0958,-0.0957,-0.0736,-0.0856,0,0,0,0,0,0,0,0,0,0,-0.1016,-0.1098,-0.1184,-0.1184,-0.1125,-0.0959,-0.0957,-0.0862,-0.0849,-0.082,0,-0.0814,0,-0.0784,-0.0722,-0.0721,0,0,0,-0.1092,-0.1109,-0.1054,-0.1184,-0.1124,-0.0959,-0.1024,-0.0854,-0.0839,-0.0803,-0.081,-0.0802,-0.078,-0.0721,-0.072,-0.0671,-0.0672,0,0,-0.1101,-0.1155,-0.1065,-0.1046,-0.1105,-0.103,-0.1019,-0.0845,-0.0847,-0.0809,-0.0796,-0.0777,-0.0719,-0.0718,-0.0671,-0.0672,0,0,0,-0.1151,-0.1162,-0.111,-0.1056,-0.1034,-0.1026,-0.1014,-0.0854,-0.0835,-0.0794,-0.0774,-0.0718,-0.0716,-0.067,-0.0671,-0.0739,0,0,0,-0.1154,-0.1193,-0.1115,-0.1145,-0.1038,-0.0948,-0.1027,-0.0846,-0.0826,-0.0775,-0.0718,-0.0714,-0.0669,-0.067,-0.0735,-0.0708,0,0,0,-0.1188,-0.1196,-0.1182,-0.1149,-0.109,-0.095,-0.0919,-0.084,-0.0815,-0.0721,-0.0714,-0.0668,-0.067,-0.0732,-0.0704,-0.0481,0,0,0,-0.1238,-0.1281,-0.1184,-0.1235,-0.1093,-0.1059,-0.092,-0.0877,-0.0814,-0.0717,-0.0669,-0.0671,-0.0731,-0.0702,-0.0483,-0.0296,-0.0272,0,0,-0.133,-0.1293,-0.1327,-0.1237,-0.1268,-0.1078,-0.1065,-0.0919,-0.0828,-0.0717,-0.0715,-0.0737,-0.0704,-0.0481,-0.0407,-0.0378,0,0,0,-0.1382,-0.14,-0.1396,-0.1385,-0.1315,-0.1204,-0.1057,-0.0947,-0.0818,-0.0803,-0.0757,-0.0733,-0.0588,-0.0483,-0.0462,-0.0179,-0.068,-0.068,-0.0679,-0.1526,-0.1504,-0.1561,-0.1508,-0.146,-0.129,-0.1146,-0.0969,-0.091,-0.086,-0.0806,-0.0707,-0.0608,-0.0587,-0.0305,-0.0856,-0.0856,-0.0857,-0.0857,-0.1662,-0.1689,-0.1652,-0.1696,-0.1572,-0.1518,-0.1212,-0.1092,-0.0793,-0.0844,-0.07,-0.0588,-0.0566,-0.0273,-0.0862,-0.0861,-0.086,-0.086,-0.0859,-0.1735,-0.1748,-0.178,-0.1815,-0.1769,-0.1609,-0.1344,-0.1119,-0.0838,-0.071,-0.044,-0.0436,-0.014,-0.0615,-0.0614,-0.0613,-0.0612,-0.0612,-0.0611,-0.1781,-0.1818,-0.1891,-0.1913,-0.191,-0.1764,-0.1376,-0.1071,-0.0626,-0.0433,-0.0429,-0.0073,-0.0628,-0.0593,-0.0595,-0.0598,-0.06,-0.0602,-0.0603,-0.1825,-0.1864,-0.1965,-0.1999,-0.1951,-0.1689,-0.1383,-0.0688,-0.0337,-0.0062,0.0317,-0.0203,-0.0098,-0.0116,-0.0066,0.007,0.007,0.007,0.007,-0.1844,-0.1878,-0.1982,-0.2011,-0.192,-0.1631,-0.0951,-0.0308,0.0415,0.0773,0.0748,0.0688,0.0648,0.0792,0.0755,0.082,0.1178,0.118,0.1182,-0.1848,-0.1898,-0.1931,-0.1989,-0.1895,-0.1458,-0.0736,0.0129,0.1056,0.1248,0.1113,0.1066,0.0983,0.0899,0.1115,0.104,0.1141,0,0]}],[{"header":{"parameterUnit":"m.s-1","parameterCategory":2,"la1":30.2992,"la2":30.254,"lo1":-89.0895,"lo2":-89.0443,"dy":0.0025,"dx":0.0025,"nx":19,"ny":19,"refTime":"2026-03-21T21:00:00:Z","depth":"2","parameterNumber":2,"parameterNumberName":"U-component_of_CURRENTS"},"data":[0,0,0,-0.2401,-0.2404,-0.2551,-0.2551,-0.2664,-0.2665,0,0,0,0,0,0,0,0,0,0,0,-0.2364,-0.2365,-0.2401,-0.2405,-0.255,-0.2551,-0.2664,-0.2665,0,0,0,0,0,0,0,0,0,0,0,-0.2363,-0.2364,-0.2366,-0.2405,-0.255,-0.2551,-0.2664,-0.2573,0,0,0,0,0,0,0,0,0,0,-0.2441,-0.2418,-0.2364,-0.2366,-0.2406,-0.255,-0.2551,-0.257,-0.2579,-0.2575,0,-0.261,0,-0.263,-0.267,-0.267,0,0,0,-0.2411,-0.2411,-0.2444,-0.2366,-0.2407,-0.255,-0.2486,-0.2576,-0.2586,-0.2586,-0.2611,-0.2616,-0.2632,-0.267,-0.2671,-0.2851,-0.2852,0,0,-0.2403,-0.2393,-0.2437,-0.2451,-0.246,-0.2482,-0.2491,-0.2583,-0.2601,-0.2612,-0.2619,-0.2634,-0.2671,-0.2671,-0.285,-0.2851,0,0,0,-0.2375,-0.2388,-0.242,-0.2446,-0.2473,-0.2486,-0.2496,-0.2598,-0.2608,-0.262,-0.2635,-0.2671,-0.2672,-0.2848,-0.285,-0.2873,0,0,0,-0.2371,-0.2371,-0.2417,-0.2413,-0.2472,-0.2548,-0.2509,-0.2602,-0.2612,-0.2635,-0.2671,-0.2673,-0.2847,-0.2849,-0.2869,-0.2804,0,0,0,-0.2354,-0.2369,-0.2389,-0.2412,-0.247,-0.2547,-0.2563,-0.2605,-0.2621,-0.267,-0.2673,-0.2846,-0.2849,-0.2865,-0.2801,-0.2734,0,0,0,-0.2333,-0.237,-0.239,-0.2455,-0.2469,-0.2582,-0.2563,-0.2651,-0.2701,-0.2672,-0.2847,-0.285,-0.2864,-0.28,-0.2734,-0.2474,-0.2454,0,0,-0.2358,-0.2373,-0.2415,-0.2435,-0.254,-0.2562,-0.2687,-0.2736,-0.275,-0.2808,-0.2813,-0.287,-0.2801,-0.2734,-0.2666,-0.2638,0,0,0,-0.241,-0.2436,-0.2479,-0.2548,-0.2628,-0.2702,-0.2773,-0.2802,-0.2879,-0.2794,-0.2932,-0.2887,-0.2842,-0.269,-0.2671,-0.2866,-0.2865,-0.2865,-0.2865,-0.2379,-0.2448,-0.2518,-0.2617,-0.2699,-0.2813,-0.2855,-0.291,-0.2951,-0.3004,-0.2954,-0.2977,-0.2823,-0.2803,-0.305,-0.305,-0.305,-0.3051,-0.3051,-0.2382,-0.2401,-0.2522,-0.2609,-0.2714,-0.2813,-0.2929,-0.2964,-0.299,-0.3044,-0.3002,-0.2783,-0.2782,-0.3054,-0.3053,-0.3053,-0.3052,-0.3052,-0.3052,-0.2317,-0.2327,-0.241,-0.2515,-0.262,-0.2769,-0.2768,-0.2882,-0.2954,-0.2937,-0.2737,-0.2733,-0.2885,-0.2933,-0.2932,-0.2932,-0.2931,-0.2931,-0.293,-0.2169,-0.2255,-0.2266,-0.2405,-0.243,-0.2513,-0.2669,-0.2678,-0.2687,-0.2687,-0.2685,-0.2934,-0.2938,-0.2878,-0.2923,-0.2924,-0.2925,-0.2926,-0.2926,-0.2049,-0.2065,-0.2063,-0.208,-0.2148,-0.2093,-0.2314,-0.2313,-0.2361,-0.2283,-0.2522,-0.2534,-0.2465,-0.248,-0.241,-0.2329,-0.2329,-0.2329,-0.2329,-0.1907,-0.1939,-0.1847,-0.1799,-0.1798,-0.1875,-0.1766,-0.1844,-0.1986,-0.2004,-0.2019,-0.203,-0.2059,-0.197,-0.1997,-0.1919,-0.171,-0.171,-0.1709,-0.1797,-0.1786,-0.1665,-0.1649,-0.1615,-0.1612,-0.1446,-0.1358,-0.1453,-0.1695,-0.202,-0.2266,-0.2324,-0.2354,-0.2255,-0.2283,-0.2172,0,0]},{"header":{"parameterUnit":"m.s-1","parameterCategory":2,"la1":30.2992,"la2":30.254,"lo1":-89.0895,"lo2":-89.0443,"dy":0.0025,"dx":0.0025,"nx":19,"ny":19,"refTime":"2026-03-21T21:00:00:Z","depth":"2","parameterNumber":3,"parameterNumberName":"V-component_of_CURRENTS"},"data":[0,0,0,-0.0354,-0.0352,-0.0231,-0.023,-0.0036,-0.0035,0,0,0,0,0,0,0,0,0,0,0,-0.039,-0.039,-0.0354,-0.0352,-0.0231,-0.023,-0.0037,-0.0035,0,0,0,0,0,0,0,0,0,0,0,-0.0391,-0.039,-0.0389,-0.0351,-0.0231,-0.023,-0.0037,-0.0132,0,0,0,0,0,0,0,0,0,0,-0.0252,-0.0314,-0.039,-0.0389,-0.0351,-0.0232,-0.023,-0.0137,-0.0126,-0.0087,0,-0.008,0,-0.0064,-0.0023,-0.0023,0,0,0,-0.0328,-0.0323,-0.0282,-0.0389,-0.035,-0.0232,-0.0279,-0.0131,-0.0119,-0.0073,-0.0077,-0.007,-0.0061,-0.0022,-0.0021,0.0107,0.0107,0,0,-0.0335,-0.037,-0.0291,-0.0275,-0.0332,-0.0283,-0.0276,-0.0124,-0.0121,-0.0076,-0.0066,-0.0058,-0.0021,-0.002,0.0107,0.0107,0,0,0,-0.037,-0.0375,-0.0338,-0.0283,-0.027,-0.028,-0.0271,-0.0128,-0.0113,-0.0064,-0.0055,-0.002,-0.0018,0.0107,0.0107,0.0004,0,0,0,-0.0373,-0.0397,-0.0342,-0.0361,-0.0274,-0.0207,-0.0279,-0.0123,-0.0106,-0.0056,-0.002,-0.0016,0.0107,0.0107,0.0007,-0.0061,0,0,0,-0.0394,-0.0399,-0.0388,-0.0363,-0.0321,-0.0209,-0.0185,-0.0119,-0.0102,-0.0022,-0.0016,0.0107,0.0107,0.0009,-0.0056,-0.0024,0,0,0,-0.0429,-0.0448,-0.0389,-0.0412,-0.0323,-0.0279,-0.0186,-0.014,-0.0083,-0.0019,0.0107,0.0107,0.001,-0.0053,-0.0022,0.0072,0.0069,0,0,-0.0479,-0.0455,-0.0471,-0.0416,-0.0424,-0.0293,-0.0265,-0.015,-0.0059,0.0064,0.0067,0.0006,-0.0056,-0.0024,0.0084,0.0082,0,0,0,-0.0504,-0.0521,-0.0512,-0.0502,-0.0436,-0.0363,-0.0242,-0.0165,-0.0048,-0.0027,0.004,0.0005,0.0028,0.009,0.0088,0.0108,0.0108,0.0108,0.0108,-0.0604,-0.0584,-0.062,-0.0581,-0.0536,-0.0401,-0.0327,-0.019,-0.0097,-0.0056,-0.0054,-0.007,-0.0005,-0.0005,-0.001,-0.001,-0.0011,-0.0011,-0.0011,-0.0708,-0.0736,-0.0702,-0.0732,-0.0635,-0.0582,-0.0388,-0.03,-0.0165,-0.0103,-0.0073,0.0009,-0.0013,-0.0019,-0.0017,-0.0016,-0.0015,-0.0015,-0.0014,-0.0789,-0.0799,-0.0819,-0.0844,-0.0807,-0.0677,-0.0598,-0.0443,-0.0272,-0.0248,-0.0093,-0.0089,-0.0132,-0.0201,-0.0201,-0.0201,-0.0201,-0.0202,-0.0202,-0.0851,-0.0871,-0.0933,-0.095,-0.0955,-0.0902,-0.0707,-0.059,-0.0342,-0.0199,-0.0196,-0.0133,-0.0126,-0.014,-0.0204,-0.0204,-0.0204,-0.0203,-0.0203,-0.094,-0.0946,-0.1034,-0.1071,-0.1087,-0.1059,-0.088,-0.0566,-0.0404,-0.0258,-0.013,-0.0131,-0.0077,-0.0073,-0.0082,-0.0128,-0.0128,-0.0128,-0.0128,-0.0985,-0.1002,-0.1095,-0.1155,-0.1193,-0.1116,-0.0905,-0.0574,-0.0258,-0.0099,-0.0101,-0.0057,-0.0059,-0.0002,0.0001,-0.0006,-0.0032,-0.0033,-0.0033,-0.1032,-0.1053,-0.1118,-0.118,-0.1231,-0.1164,-0.0923,-0.0466,-0.0042,-0.0036,-0.0155,-0.0108,-0.0044,-0.0048,0.0044,0.0047,0.0039,0,0]}],[{"header":{"parameterUnit":"m.s-1","parameterCategory":2,"la1":30.2992,"la2":30.254,"lo1":-89.0895,"lo2":-89.0443,"dy":0.0025,"dx":0.0025,"nx":19,"ny":19,"refTime":"2026-03-21T21:00:00:Z","depth":"4","parameterNumber":2,"parameterNumberName":"U-component_of_CURRENTS"},"data":[0,0,0,-0.1693,-0.1697,-0.1896,-0.1897,-0.2069,-0.2071,0,0,0,0,0,0,0,0,0,0,0,-0.1625,-0.1626,-0.1692,-0.1697,-0.1896,-0.1897,-0.2069,-0.2071,0,0,0,0,0,0,0,0,0,0,0,-0.1624,-0.1626,-0.1628,-0.1698,-0.1895,-0.1897,-0.2069,-0.194,0,0,0,0,0,0,0,0,0,0,-0.1757,-0.1696,-0.1625,-0.1628,-0.1699,-0.1895,-0.1897,-0.1934,-0.1948,-0.1955,0,-0.1994,0,-0.2035,-0.208,-0.2081,0,0,0,-0.1699,-0.1685,-0.1748,-0.1628,-0.1701,-0.1895,-0.1807,-0.1942,-0.1957,-0.1973,-0.1997,-0.2004,-0.2037,-0.2081,-0.2082,-0.2252,-0.2253,0,0,-0.1688,-0.1651,-0.1738,-0.1758,-0.1762,-0.18,-0.1813,-0.1952,-0.1964,-0.1997,-0.2009,-0.204,-0.2082,-0.2083,-0.2251,-0.2252,0,0,0,-0.1655,-0.1643,-0.1704,-0.175,-0.1792,-0.1806,-0.182,-0.1958,-0.1982,-0.2011,-0.2042,-0.2083,-0.2085,-0.225,-0.2252,-0.2255,0,0,0,-0.1649,-0.1624,-0.1699,-0.1677,-0.179,-0.1886,-0.1822,-0.1972,-0.1989,-0.2041,-0.2083,-0.2086,-0.225,-0.2251,-0.2253,-0.2218,0,0,0,-0.1614,-0.162,-0.1648,-0.1675,-0.1762,-0.1886,-0.1918,-0.1977,-0.2008,-0.2081,-0.2086,-0.2249,-0.2251,-0.2251,-0.2216,-0.2225,0,0,0,-0.1561,-0.1625,-0.1647,-0.1732,-0.176,-0.191,-0.1917,-0.2036,-0.2105,-0.2084,-0.225,-0.2252,-0.2251,-0.2215,-0.2224,-0.1935,0,0,0,-0.1613,-0.1629,-0.1682,-0.1709,-0.1838,-0.1882,-0.2005,-0.2096,-0.2131,-0.2196,-0.2201,-0.2254,-0.2216,-0.2225,-0.2051,0,0,0,0,-0.1681,-0.1715,-0.1763,-0.1841,-0.1942,-0.201,-0.2111,-0.2141,-0.2226,-0.2181,-0.2292,-0.2268,-0.2273,-0.2105,-0.2261,-0.2261,-0.226,-0.226,-0.226,-0.1683,-0.1748,-0.1825,-0.1915,-0.2,-0.2117,-0.2169,-0.2226,-0.2272,-0.2311,-0.2301,-0.2345,-0.2173,-0.2355,-0.2355,-0.2355,-0.2355,-0.2355,-0.2355,-0.1718,-0.1738,-0.183,-0.1926,-0.2009,-0.2107,-0.2212,-0.2252,-0.2316,-0.2337,-0.2343,-0.2157,-0.2357,-0.2356,-0.2356,-0.2356,-0.2356,-0.2356,-0.2356,-0.1663,-0.1673,-0.1756,-0.1855,-0.195,-0.2071,-0.2112,-0.2218,-0.2298,-0.2318,-0.2158,-0.2343,-0.2307,-0.2345,-0.2345,-0.2344,-0.2344,-0.2344,-0.2344,-0.1538,-0.162,-0.165,-0.1771,-0.1814,-0.1903,-0.2056,-0.2095,-0.2214,-0.211,-0.2325,-0.2341,-0.2341,-0.2307,-0.2343,-0.2343,-0.2343,-0.2343,-0.2344,-0.1431,-0.1468,-0.149,-0.1532,-0.1627,-0.1675,-0.187,-0.1903,-0.1922,-0.1886,-0.2,-0.2018,-0.198,-0.1989,-0.1941,-0.1869,-0.1865,-0.1862,0,-0.1314,-0.1349,-0.1333,-0.1344,-0.1362,-0.1524,-0.1492,-0.1593,-0.1699,-0.1636,-0.1934,-0.2062,-0.2073,-0.2033,-0.2035,-0.1978,0,0,0,-0.1216,-0.1231,-0.117,-0.1219,-0.1227,-0.1313,-0.1474,-0.1433,-0.1691,-0.1626,-0.177,-0.1794,-0.2136,-0.2339,-0.2322,-0.2322,-0.2267,0,0]},{"header":{"parameterUnit":"m.s-1","parameterCategory":2,"la1":30.2992,"la2":30.254,"lo1":-89.0895,"lo2":-89.0443,"dy":0.0025,"dx":0.0025,"nx":19,"ny":19,"refTime":"2026-03-21T21:00:00:Z","depth":"4","parameterNumber":3,"parameterNumberName":"V-component_of_CURRENTS"},"data":[0,0,0,-0.0284,-0.0283,-0.0211,-0.021,-0.0061,-0.006,0,0,0,0,0,0,0,0,0,0,0,-0.0303,-0.0303,-0.0284,-0.0283,-0.0211,-0.021,-0.0061,-0.006,0,0,0,0,0,0,0,0,0,0,0,-0.0304,-0.0303,-0.0303,-0.0283,-0.0211,-0.021,-0.0062,-0.0126,0,0,0,0,0,0,0,0,0,0,-0.0201,-0.0247,-0.0303,-0.0303,-0.0283,-0.0211,-0.021,-0.0129,-0.0122,-0.0083,0,-0.0081,0,-0.0076,-0.005,-0.005,0,0,0,-0.0265,-0.0254,-0.0225,-0.0303,-0.0282,-0.0211,-0.0238,-0.0125,-0.0117,-0.0073,-0.0079,-0.0074,-0.0073,-0.0049,-0.0049,0.0054,0.0054,0,0,-0.0269,-0.0293,-0.0231,-0.022,-0.0273,-0.0241,-0.0236,-0.0121,-0.012,-0.0078,-0.007,-0.0071,-0.0048,-0.0047,0.0054,0.0054,0,0,0,-0.0293,-0.0297,-0.0272,-0.0226,-0.0222,-0.0239,-0.0234,-0.0125,-0.0114,-0.0069,-0.0069,-0.0047,-0.0046,0.0054,0.0054,-0.0066,0,0,0,-0.0294,-0.0312,-0.0274,-0.0288,-0.0225,-0.0185,-0.0241,-0.0122,-0.0109,-0.007,-0.0047,-0.0044,0.0054,0.0054,-0.0063,-0.0128,0,0,0,-0.0305,-0.0313,-0.0306,-0.029,-0.0267,-0.0186,-0.0169,-0.0119,-0.011,-0.005,-0.0044,0.0054,0.0054,-0.006,-0.0122,-0.0086,0,0,0,-0.033,-0.0345,-0.0307,-0.0326,-0.0267,-0.024,-0.017,-0.0138,-0.0094,-0.0047,0.0054,0.0054,-0.006,-0.0119,-0.0084,-0.0078,0,0,0,-0.0366,-0.035,-0.0362,-0.0327,-0.034,-0.0248,-0.0241,-0.0154,-0.0074,0.0023,0.0025,-0.0064,-0.0122,-0.0086,-0.007,0,0,0,0,-0.0385,-0.0402,-0.0396,-0.0396,-0.035,-0.032,-0.0226,-0.0176,-0.0097,-0.005,-0.0028,-0.006,-0.0033,-0.0021,0.0054,0.0054,0.0054,0.0054,0.0054,-0.0462,-0.0451,-0.0486,-0.0466,-0.0441,-0.0359,-0.0321,-0.0227,-0.0141,-0.0123,-0.0131,-0.0153,-0.0144,-0.009,-0.0091,-0.0091,-0.0092,-0.0092,-0.0092,-0.0544,-0.0571,-0.0562,-0.0595,-0.0548,-0.0524,-0.0409,-0.0348,-0.0254,-0.0202,-0.0168,-0.0118,-0.0103,-0.0101,-0.01,-0.0098,-0.0097,-0.0097,-0.0096,-0.0605,-0.0617,-0.0646,-0.0692,-0.0704,-0.0632,-0.0597,-0.0502,-0.0365,-0.035,-0.0241,-0.0202,-0.0218,-0.0298,-0.0298,-0.0298,-0.0299,-0.0299,-0.0299,-0.0646,-0.0675,-0.0745,-0.079,-0.0822,-0.0814,-0.0708,-0.0616,-0.0469,-0.0369,-0.0357,-0.022,-0.0214,-0.0226,-0.0301,-0.0301,-0.03,-0.03,-0.03,-0.0704,-0.0725,-0.0823,-0.0878,-0.0945,-0.0934,-0.0847,-0.0625,-0.0522,-0.0391,-0.034,-0.0338,-0.0277,-0.0268,-0.0281,-0.0375,-0.0375,-0.0375,0,-0.0736,-0.0756,-0.0879,-0.0966,-0.1018,-0.099,-0.0848,-0.0704,-0.0511,-0.0524,-0.0517,-0.0472,-0.0465,-0.0408,-0.0399,-0.0421,0,0,0,-0.0769,-0.0803,-0.0888,-0.0981,-0.1045,-0.0901,-0.0804,-0.0718,-0.0565,-0.0411,-0.038,-0.0379,-0.035,-0.0308,-0.0207,-0.0199,-0.0212,0,0]}]]